Location: Potomac Astrometric Observatory
(39.0475°N, 77.2064°W)
Time: 20:20:15
(UTC-04:00)

Hubble Space Telescope - Visible Passes

Search period start: 16 July 2018 00:00
Search period end: 26 July 2018 00:00
Orbit: 537 x 541 km, 28.5° (Epoch: 16 July)

Date Brightness Start Highest point End Pass type
(mag) Time Alt. Az. Time Alt. Az. Time Alt. Az.
16 Jul 3.0 04:16:12 12° SSE 04:16:12 12° SSE 04:17:42 10° SE visible
17 Jul 2.9 04:06:19 13° SSE 04:06:19 13° SSE 04:07:43 10° SE visible
18 Jul 3.0 03:56:28 13° SSE 03:56:28 13° SSE 03:57:35 10° SE visible
19 Jul 3.1 03:46:41 12° SE 03:46:41 12° SE 03:47:20 10° SE visible
19 Jul 2.5 05:22:25 10° SW 05:25:15 18° S 05:28:05 10° SE visible
20 Jul 3.3 03:36:58 10° SE 03:36:58 10° SE 03:37:01 10° SE visible
20 Jul 2.5 05:12:20 11° SW 05:14:48 17° S 05:17:30 10° SE visible
21 Jul 2.5 05:02:44 13° SW 05:04:19 16° S 05:06:52 10° SSE visible
22 Jul 2.6 04:53:17 14° SSW 04:53:50 14° SSW 04:56:08 10° SSE visible
23 Jul 2.8 04:43:59 12° S 04:43:59 12° S 04:45:16 10° SSE visible
